Wind_Speed
28 28 30 27 26 29 32 27 22 18 21 24 19 17 16 16 24 25 23 25 27 32 32 34 35 38 39 39 35 33 32 31 30 30 33 36 36 33
27 27 27 26 27 19 18 18 18 22 22 21 16 18 26 23 23 24 26 30 34 36 38 39 39 38 38 37 35 33 31 31 33 31 34 36 39 37
29 29 30 27 22 19 18 18 22 21 18 17 17 18 23 24 28 31 33 34 34 34 34 36 37 37 38 38 38 38 35 33 33 34 39 40 41 41
23 22 21 16 18 18 19 21 26 23 21 21 23 25 26 28 31 33 34 33 33 32 33 33 34 33 34 35 35 38 37 35 34 32 37 40 42 41
14 18 13 15 12 14 14 13 14 15 18 20 24 25 27 27 28 28 29 29 30 30 30 30 29 28 28 30 29 27 31 33 34 31 34 39 41 42
3 4 5 7 9 10 11 12 14 15 17 19 21 23 24 24 25 27 29 28 30 31 32 29 27 26 26 27 27 26 24 26 30 33 32 33 40 45
4 5 6 7 9 9 11 12 14 16 17 19 20 21 22 24 25 27 30 32 30 30 29 26 28 28 30 31 29 28 27 25 28 30 30 31 36 44
5 7 6 7 9 10 12 14 15 17 19 20 21 23 23 23 24 26 27 29 29 28 29 32 31 31 27 29 25 24 27 24 22 22 26 36 40 40
4 4 6 7 7 9 11 13 15 17 19 21 21 21 22 22 22 23 23 24 28 30 31 35 31 32 29 27 24 25 26 23 23 22 24 29 36 39
4 4 6 8 9 11 13 14 14 15 16 17 19 20 21 21 20 20 23 26 28 27 23 32 32 27 27 28 22 24 20 20 21 23 23 29 31 36
5 6 7 8 10 12 14 15 15 16 16 18 20 20 18 17 13 16 20 23 27 28 27 26 27 28 33 31 20 17 19 20 22 19 17 28 33 29
6 7 9 10 12 15 16 17 18 19 20 19 20 21 20 17 13 12 16 21 24 27 26 25 30 26 26 23 20 26 21 18 15 13 18 23 25 26
8 8 9 12 15 15 16 16 16 17 20 21 22 21 20 19 19 15 13 17 22 25 24 23 28 26 23 24 27 25 22 18 13 17 18 24 24 25
10 11 12 13 15 16 15 15 15 18 20 21 22 21 22 22 19 15 13 16 19 22 21 20 23 21 23 27 27 26 24 19 12 15 18 19 19 20
13 14 15 16 16 16 17 18 19 20 21 21 20 21 21 21 19 17 14 14 16 17 19 19 19 19 18 21 24 23 22 17 10 7 12 15 15 12
17 17 17 17 16 16 18 18 20 20 21 19 18 20 19 19 19 18 18 16 17 14 15 17 16 16 17 17 17 17 17 11 9 6 8 12 8 7
18 17 17 16 16 17 18 21 21 21 20 18 20 19 19 19 18 17 17 17 18 19 18 18 15 13 11 13 15 14 14 11 9 8 8 5 5 3
18 19 17 17 18 18 19 22 22 20 19 19 19 18 18 18 19 17 17 17 18 16 18 17 13 12 11 11 10 10 8 8 6 5 7 7 4 2
18 19 18 18 18 19 20 20 20 18 19 19 18 17 18 17 16 17 16 17 18 16 16 15 12 11 10 11 12 10 9 6 4 7 7 6 5 4
17 17 18 19 19 19 17 18 18 18 19 18 18 18 17 16 17 17 15 16 18 17 16 15 11 9 9 9 12 11 6 5 6 9 7 6 6 6
16 16 15 15 15 16 16 17 18 18 18 19 18 17 16 16 16 16 17 15 15 15 17 14 10 9 6 7 9 6 3 4 7 7 9 9 8 8
16 16 16 15 15 15 16 17 18 18 18 19 19 18 17 16 17 17 18 17 14 16 15 12 9 5 4 7 8 8 6 10 12 11 12 8 8 7
18 18 16 15 14 15 15 16 18 19 19 20 20 20 18 18 16 17 18 18 14 14 13 10 8 5 6 7 7 11 12 14 14 12 9 10 5 14
Wind_Direction
264 265 263 262 270 274 260 249 249 252 267 276 282 286 273 263 285 282 269 270 276 283 284 284 286 285 286 285 282 278 276 274 272 273 264 263 267 274
268 268 261 267 259 248 252 252 251 260 262 269 254 253 275 279 270 271 274 281 286 285 285 286 285 282 281 278 277 275 270 269 270 270 263 265 269 269
271 255 255 243 244 251 246 254 252 248 247 257 262 247 264 264 271 279 284 284 285 286 286 285 285 284 281 278 275 272 269 265 264 263 262 265 266 266
256 244 234 252 222 229 242 242 256 261 264 269 274 280 285 285 286 286 285 286 289 289 284 283 282 283 285 283 283 279 277 271 265 262 266 267 265 266
222 223 223 221 233 247 250 256 270 280 284 285 286 290 291 293 291 292 292 292 290 290 289 288 287 287 286 286 286 288 281 275 270 260 266 268 272 259
229 236 242 257 262 266 275 280 283 286 290 293 295 298 301 303 305 309 306 307 308 308 308 308 299 295 290 289 288 286 285 283 273 263 266 268 271 258
258 261 267 274 281 289 293 296 298 301 301 302 304 305 309 312 313 311 307 308 308 313 317 316 311 305 301 298 296 295 290 283 271 261 268 273 276 261
267 275 286 301 314 316 315 314 314 311 308 308 309 308 308 307 308 309 310 316 319 326 319 314 317 307 305 309 297 308 302 293 287 266 271 275 275 258
264 278 290 302 310 310 309 310 311 309 305 301 301 303 302 304 309 313 313 315 314 316 315 313 311 313 317 310 307 298 297 284 273 271 264 269 273 272
277 293 308 320 316 313 310 309 304 304 301 298 297 298 303 309 309 312 312 309 309 315 318 310 315 317 319 316 311 303 293 290 283 267 258 257 268 257
307 307 305 305 303 302 309 312 312 311 309 308 305 305 303 303 297 301 314 318 317 316 321 319 317 314 316 322 330 316 312 302 297 270 261 265 254 241
283 289 298 306 315 318 319 321 321 321 320 318 314 312 313 311 308 299 310 311 311 316 316 309 311 318 319 318 317 316 321 315 311 285 230 231 239 241
290 296 301 305 313 316 323 323 321 316 316 316 313 309 310 311 314 304 293 308 307 303 313 310 306 312 309 306 312 313 321 320 308 256 250 246 254 269
293 302 306 311 316 319 322 321 313 314 317 315 314 315 315 314 316 311 296 297 300 303 307 305 301 308 303 298 306 312 319 316 292 258 252 250 262 267
302 302 304 307 308 313 314 317 316 315 318 318 318 316 315 317 317 310 294 293 298 304 309 305 303 300 298 298 300 308 312 316 311 266 248 258 267 266
296 292 294 300 305 305 310 314 317 317 319 317 314 312 317 321 322 323 311 306 307 304 309 317 308 308 302 292 292 296 300 291 322 271 246 264 235 232
291 290 290 294 297 303 310 313 313 317 320 318 315 315 318 320 321 324 323 316 312 318 318 320 312 317 318 311 297 293 289 284 282 284 256 229 217 215
290 291 290 291 295 303 308 312 316 318 319 319 318 317 316 317 319 317 321 310 309 313 313 320 319 325 314 306 307 296 292 284 275 240 208 201 161 137
282 285 285 285 292 300 303 306 315 319 320 320 319 317 315 316 316 312 319 317 311 315 313 313 315 319 298 293 300 296 281 272 234 193 200 150 139 130
286 283 279 283 289 295 302 314 319 322 322 324 322 320 317 318 318 316 314 314 319 320 319 313 308 307 289 279 295 294 280 242 209 192 165 138 123 108
286 291 292 287 293 303 310 318 319 322 325 324 319 320 317 315 315 318 320 306 310 310 309 309 308 293 280 256 269 263 245 157 146 161 140 134 134 121
283 288 291 294 300 305 312 318 320 319 318 321 320 319 315 311 313 320 321 315 309 314 308 309 307 291 271 255 258 212 170 150 149 149 141 130 138 172
285 291 293 294 302 305 308 312 315 315 317 320 316 315 314 310 312 317 317 314 298 308 307 306 305 267 246 263 232 195 163 153 149 142 135 149 164 155
Height
1468 1467 1468 1467 1467 1467 1467 1467 1468 1469 1468 1469 1471 1471 1472 1471 1470 1470 1469 1468 1467 1464 1462 1460 1457 1455 1453 1451 1450 1448 1448 1447 1448 1448 1448 1448 1449 1450
1463 1462 1462 1461 1461 1461 1459 1461 1463 1464 1463 1464 1464 1464 1465 1463 1463 1463 1461 1460 1458 1456 1453 1450 1447 1445 1442 1441 1439 1438 1437 1437 1437 1438 1438 1438 1439 1440
1457 1457 1456 1455 1454 1455 1456 1457 1458 1457 1456 1457 1457 1458 1457 1456 1457 1456 1453 1451 1448 1446 1442 1440 1437 1435 1432 1430 1429 1427 1426 1426 1426 1427 1427 1427 1428 1428
1450 1446 1447 1448 1450 1451 1452 1453 1453 1452 1453 1452 1451 1450 1450 1449 1447 1445 1443 1441 1438 1435 1432 1430 1428 1425 1423 1421 1419 1417 1416 1415 1414 1415 1417 1418 1418 1419
1444 1443 1444 1445 1445 1446 1446 1447 1447 1447 1447 1446 1446 1444 1443 1442 1439 1436 1434 1432 1429 1426 1424 1421 1419 1416 1414 1412 1410 1407 1405 1404 1405 1404 1406 1407 1409 1409
1440 1442 1443 1443 1443 1444 1445 1445 1444 1444 1442 1441 1440 1439 1437 1436 1432 1428 1425 1423 1419 1418 1416 1413 1411 1408 1405 1403 1401 1398 1396 1393 1394 1395 1396 1398 1400 1399
1443 1443 1442 1442 1442 1442 1442 1441 1440 1439 1438 1436 1435 1434 1431 1429 1426 1423 1418 1414 1412 1411 1407 1405 1403 1400 1397 1395 1392 1390 1388 1385 1384 1384 1386 1387 1389 1389
1442 1442 1442 1441 1440 1439 1439 1438 1437 1435 1434 1432 1431 1428 1426 1424 1421 1417 1413 1408 1403 1404 1400 1396 1395 1393 1390 1387 1384 1382 1381 1378 1376 1375 1377 1378 1379 1380
1442 1442 1440 1439 1439 1438 1438 1436 1434 1433 1431 1429 1426 1424 1420 1419 1415 1411 1410 1405 1401 1399 1396 1389 1390 1385 1383 1380 1377 1374 1372 1370 1369 1368 1368 1370 1371 1373
1441 1440 1438 1437 1436 1435 1435 1434 1432 1431 1428 1425 1422 1419 1416 1413 1411 1408 1405 1401 1397 1394 1392 1385 1384 1380 1378 1373 1371 1368 1365 1362 1360 1359 1358 1360 1362 1364
1439 1438 1437 1436 1435 1434 1432 1430 1429 1427 1424 1421 1418 1414 1411 1408 1406 1403 1399 1395 1389 1388 1387 1383 1378 1375 1371 1366 1365 1362 1360 1357 1354 1352 1351 1354 1356 1358
1437 1436 1435 1434 1432 1430 1428 1425 1423 1421 1417 1416 1413 1409 1406 1403 1401 1398 1395 1392 1390 1384 1383 1380 1374 1372 1366 1361 1362 1361 1357 1353 1349 1347 1348 1349 1350 1352
1435 1434 1433 1431 1429 1427 1424 1422 1420 1417 1414 1411 1408 1405 1401 1397 1394 1392 1391 1390 1387 1383 1381 1377 1371 1368 1366 1360 1356 1356 1352 1349 1347 1347 1347 1345 1346 1348
1432 1430 1429 1427 1426 1423 1421 1419 1417 1413 1410 1407 1403 1400 1395 1391 1389 1388 1387 1385 1383 1379 1376 1373 1369 1367 1363 1359 1353 1351 1350 1347 1345 1344 1343 1343 1343 1344
1428 1427 1425 1423 1422 1420 1418 1415 1412 1409 1406 1402 1398 1395 1392 1389 1386 1383 1382 1379 1376 1375 1373 1369 1366 1362 1359 1356 1353 1349 1347 1346 1342 1342 1341 1340 1341 1341
1425 1423 1422 1420 1419 1417 1414 1411 1408 1404 1401 1398 1395 1393 1389 1387 1383 1380 1376 1374 1370 1369 1368 1364 1361 1358 1356 1353 1352 1349 1347 1345 1342 1341 1340 1340 1339 1341
1419 1417 1416 1415 1414 1412 1410 1407 1404 1401 1397 1394 1391 1388 1386 1382 1379 1377 1374 1370 1368 1364 1363 1360 1358 1355 1353 1351 1349 1347 1345 1342 1341 1340 1340 1340 1339 1340
1413 1412 1411 1410 1408 1406 1404 1402 1399 1396 1393 1390 1387 1384 1381 1378 1375 1373 1371 1369 1365 1361 1360 1357 1355 1354 1352 1351 1348 1346 1344 1342 1341 1340 1341 1342 1342 1343
1408 1406 1405 1404 1403 1401 1399 1397 1395 1392 1390 1387 1384 1381 1379 1375 1373 1370 1366 1365 1362 1358 1356 1355 1354 1352 1350 1349 1348 1345 1343 1342 1341 1341 1342 1343 1344 1345
1403 1402 1401 1400 1398 1397 1395 1393 1391 1388 1386 1383 1381 1377 1375 1372 1369 1367 1363 1362 1359 1355 1354 1353 1351 1349 1348 1348 1347 1345 1343 1342 1342 1343 1343 1344 1344 1346
1398 1396 1395 1394 1393 1392 1390 1388 1386 1384 1382 1379 1377 1374 1372 1369 1366 1363 1360 1358 1355 1353 1351 1350 1348 1347 1345 1346 1346 1345 1343 1342 1343 1345 1346 1347 1349 1349
1393 1391 1390 1389 1388 1387 1386 1384 1382 1380 1378 1375 1372 1369 1367 1365 1362 1359 1356 1353 1351 1349 1348 1347 1345 1345 1345 1345 1346 1345 1345 1344 1345 1346 1348 1350 1353 1355
1388 1386 1385 1384 1383 1383 1381 1380 1378 1376 1374 1371 1368 1365 1363 1360 1358 1355 1352 1349 1347 1345 1345 1344 1343 1344 1344 1345 1345 1346 1347 1347 1348 1349 1350 1352 1354 1356